Stations météo

Publicité
Rodez, France (7552): Température de l'air & dewpoint: 20.03.2017 09:00:00 - 26.03.2017 09:00:00 (CEST)Rodez, France (7552): Température de l'air 5cm: 20.03.2017 09:00:00 - 26.03.2017 09:00:00 (CEST)Rodez, France (7552): Vitesse du vent & gusts: 20.03.2017 09:00:00 - 26.03.2017 09:00:00 (CEST)Rodez, France (7552): Direction du vent: 20.03.2017 09:00:00 - 26.03.2017 09:00:00 (CEST)Rodez, France (7552): reduced air pressure: 20.03.2017 09:00:00 - 26.03.2017 09:00:00 (CEST)Rodez, France (7552): visibility: 20.03.2017 09:00:00 - 26.03.2017 09:00:00 (CEST)Rodez, France (7552): Ensoleillement: 20.03.2017 09:00:00 - 26.03.2017 09:00:00 (CEST)Rodez, France (7552): Quantités de précipitations: 20.03.2017 09:00:00 - 26.03.2017 09:00:00 (CEST)
Date & Time tt [°C] td [°C] tt 5cm [°C] ff [km/h] ff [knt] fx [km/h] fx [knt] dd ppp [hPa] vv [km] sd [min] rr [mm]
26.03.2017 09:00:00 - - - - - - - - - - - -
26.03.2017 08:00:00 3,1 1,9 1,6 11 6 16 9 E 1019,0 57 0 0,0
26.03.2017 07:00:00 3,1 1,8 1,5 13 7 18 10 NE 1018,7 52 0 0,0
26.03.2017 06:00:00 4,4 2,4 1,5 10 5 20 11 E 1018,5 60 0 0,0
26.03.2017 05:00:00 4,8 2,0 3,0 13 7 24 13 ESE 1018,3 60 0 0,0
26.03.2017 04:00:00 5,6 2,2 4,1 16 9 31 17 ESE 1018,2 60 0 0,0
26.03.2017 03:00:00 5,8 2,6 4,3 16 9 29 16 ESE 1018,4 60 0 0,0
26.03.2017 02:00:00 5,9 2,4 4,6 18 10 34 18 ESE 1018,1 60 0 0,0
26.03.2017 01:00:00 6,5 2,9 5,1 20 11 42 23 SE 1017,9 60 0 0,0
26.03.2017 00:00:00 7,0 2,9 5,5 23 13 40 22 SE 1017,5 60 0 0,0
25.03.2017 23:00:00 7,0 3,1 5,7 24 13 43 23 ESE 1017,0 60 0 0,0
25.03.2017 22:00:00 7,7 2,8 6,8 28 15 47 26 ESE 1016,3 60 0 0,0
25.03.2017 21:00:00 8,3 2,7 7,5 20 11 46 25 ESE 1015,6 60 0 0,0
25.03.2017 20:00:00 9,0 2,1 8,5 29 16 49 26 ESE 1014,4 60 2 0,0
25.03.2017 19:00:00 9,6 2,0 9,6 33 18 62 33 SE 1013,6 59 12 0,0
25.03.2017 18:00:00 9,8 2,2 10,7 37 20 60 33 SE 1013,2 50 1 0,0
25.03.2017 17:00:00 9,8 2,2 10,8 39 21 65 35 SE 1013,6 60 0 0,0
25.03.2017 16:00:00 9,5 2,8 10,3 37 20 83 45 SE 1013,5 57 0 0,0
25.03.2017 15:00:00 9,3 2,6 10,0 54 29 85 46 ESE 1012,7 35 0 0,0
25.03.2017 14:00:00 8,9 2,7 10,1 58 31 86 46 ESE 1012,3 32 13 0,0
25.03.2017 13:00:00 9,6 5,2 8,5 39 21 73 40 E 1012,0 37 44 0,0
25.03.2017 12:00:00 8,2 4,6 6,7 47 25 76 41 E 1012,6 41 0 1,0
25.03.2017 11:00:00 7,9 6,7 7,2 48 26 88 48 SE 1013,1 3,1 0 2,4
25.03.2017 10:00:00 12,7 4,9 10,5 36 20 58 32 E 1010,6 48 0 0,0
25.03.2017 09:00:00 10,8 4,5 7,7 24 13 35 19 E 1011,0 58 0 0,0
25.03.2017 08:00:00 8,8 4,0 7,0 18 10 26 14 E 1012,1 60 0 0,0
25.03.2017 07:00:00 9,5 4,3 7,6 18 10 28 15 E 1012,2 60 0 0,0
25.03.2017 06:00:00 10,1 4,7 8,5 20 11 42 23 E 1012,6 60 0 0,0
25.03.2017 05:00:00 10,2 5,2 8,3 24 13 39 21 E 1013,3 60 0 0,0
25.03.2017 04:00:00 10,1 5,5 7,8 22 12 31 17 E 1014,6 60 0 0,0
25.03.2017 03:00:00 9,3 5,7 6,7 19 10 29 16 E 1015,8 60 0 0,0
25.03.2017 02:00:00 8,9 5,5 7,4 14 8 23 13 E 1015,9 58 0 0,0
25.03.2017 01:00:00 9,5 5,7 1,8 16 9 23 12 E 1015,8 60 0 0,0
25.03.2017 00:00:00 4,4 4,0 1,9 5 3 13 7 S 1017,2 0,8 0 0,0
24.03.2017 23:00:00 6,7 6,7 3,4 4 2 10 5 NNE 1016,8 1,1 0 0,0
24.03.2017 22:00:00 6,6 6,6 4,3 0 0 5 3 N 1016,7 9 0 0,2
24.03.2017 21:00:00 6,7 6,7 6,5 4 2 11 6 SSW 1017,1 6 0 1,8
24.03.2017 20:00:00 6,5 6,5 6,5 4 2 14 8 N 1016,6 10 0 0,2
24.03.2017 19:00:00 6,3 6,3 6,2 9 5 16 9 N 1016,6 7 0 1,0
24.03.2017 18:00:00 6,1 5,8 6,1 8 5 29 15 NNW 1017,8 7 0 0,8
24.03.2017 17:00:00 6,1 6,0 6,6 17 9 23 13 N 1017,9 25 0 2,0
24.03.2017 16:00:00 6,4 6,4 6,7 9 5 16 9 NNW 1018,1 13 0 3,2
24.03.2017 15:00:00 7,4 7,0 7,4 10 5 12 7 NW 1017,9 9 0 2,1
24.03.2017 14:00:00 7,1 5,6 7,4 3 2 14 8 ESE 1018,2 8 0 1,6
24.03.2017 13:00:00 7,1 6,8 6,6 12 6 17 9 ENE 1017,9 17 0 2,2
24.03.2017 12:00:00 7,1 5,7 6,5 11 6 19 10 E 1018,0 7 0 1,0
24.03.2017 11:00:00 7,3 5,3 6,1 8 4 15 8 ENE 1016,8 60 0 0,0
24.03.2017 10:00:00 6,8 4,5 5,5 12 6 22 12 SE 1016,7 50 0 0,0
24.03.2017 09:00:00 6,1 4,1 4,1 14 8 22 12 E 1016,2 60 0 0,0
24.03.2017 08:00:00 5,3 3,8 3,9 12 6 21 11 E 1015,6 60 0 0,0
24.03.2017 07:00:00 5,0 3,5 3,5 16 8 24 13 E 1015,6 60 0 0,0
24.03.2017 06:00:00 5,1 2,1 3,0 9 5 21 11 E 1015,6 60 0 0,0
24.03.2017 05:00:00 4,1 3,7 1,1 7 4 16 9 E 1015,5 19 0 0,0
24.03.2017 04:00:00 3,3 2,6 2,3 7 4 11 6 ENE 1015,7 17 0 0,0
24.03.2017 03:00:00 3,0 2,1 0,3 9 5 12 6 ENE 1015,7 60 0 0,0
24.03.2017 02:00:00 1,3 1,3 -0,9 0 0 4 2 N 1016,3 18 0 0,0
24.03.2017 01:00:00 0,1 0,1 -1,2 4 2 7 4 SSW 1016,7 11 0 0,0
24.03.2017 00:00:00 1,2 1,2 -0,8 2 1 8 4 ESE 1016,0 18 0 0,0
23.03.2017 23:00:00 1,5 1,4 -0,8 0 0 8 4 N 1015,7 50 0 0,0
23.03.2017 22:00:00 1,8 1,8 0,5 9 5 12 7 ENE 1015,4 60 0 0,0
23.03.2017 21:00:00 2,0 1,6 1,0 8 5 14 7 NE 1014,6 60 0 0,0
23.03.2017 20:00:00 3,3 2,3 2,3 5 3 14 8 NE 1013,8 60 44 0,0
23.03.2017 19:00:00 3,6 2,1 7,2 10 5 19 10 ENE 1013,0 58 60 0,0
23.03.2017 18:00:00 2,7 2,0 3,0 7 4 12 6 E 1012,7 58 31 0,8
23.03.2017 17:00:00 1,3 1,3 0,9 9 5 17 9 E 1012,5 20 0 1,4
23.03.2017 16:00:00 0,5 0,5 0,2 15 8 21 11 E 1012,7 2,6 0 2,6
23.03.2017 15:00:00 0,5 0,5 0,1 3 2 9 5 NW 1013,0 0,8 0 3,1
23.03.2017 14:00:00 0,5 0,5 0,1 7 4 18 10 W 1013,2 1,4 0 0,8
23.03.2017 13:00:00 1,2 1,2 0,6 10 5 26 14 W 1012,5 7 0 2,4
23.03.2017 12:00:00 3,1 3,1 3,5 14 8 26 14 WNW 1010,2 55 0 0,0
23.03.2017 11:00:00 4,0 3,6 3,9 18 10 27 14 WSW 1010,0 19 0 0,4
23.03.2017 10:00:00 4,4 3,7 4,2 9 5 16 9 WSW 1009,0 60 0 0,0
23.03.2017 09:00:00 4,3 3,6 4,2 3 1 13 7 SE 1008,9 19 0 0,0
23.03.2017 08:00:00 4,2 4,1 4,1 11 6 13 7 W 1008,2 49 0 0,0
23.03.2017 07:00:00 4,2 4,1 4,0 7 4 10 6 W 1007,9 54 0 0,0
23.03.2017 06:00:00 3,9 3,5 4,0 5 3 10 5 N 1007,5 60 0 0,0
23.03.2017 05:00:00 4,4 4,4 4,5 6 3 22 12 NNW 1007,9 13 0 0,0
23.03.2017 04:00:00 5,4 4,8 5,4 14 8 28 15 WNW 1008,6 38 0 0,0
23.03.2017 03:00:00 7,5 6,1 3,5 7 4 13 7 SW 1008,0 17 0 0,0
23.03.2017 02:00:00 6,6 4,6 3,1 5 3 30 16 SSW 1007,7 20 0 0,0
23.03.2017 01:00:00 7,8 5,1 6,5 21 11 33 18 SE 1006,8 29 0 0,0
23.03.2017 00:00:00 7,7 4,6 5,8 19 11 31 17 ESE 1007,2 32 0 0,0
22.03.2017 23:00:00 7,3 2,8 5,7 13 7 27 15 ESE 1008,3 60 0 0,0
22.03.2017 22:00:00 7,9 2,4 2,7 12 7 19 10 SE 1008,5 60 0 0,0
22.03.2017 21:00:00 8,5 0,0 3,5 3 2 8 4 E 1008,5 60 0 0,0
22.03.2017 20:00:00 9,6 -0,3 5,9 6 3 12 7 NNW 1008,0 16 25 0,0
22.03.2017 19:00:00 11,8 -2,4 12,0 4 2 6 3 NNW 1007,7 60 0 0,0
22.03.2017 18:00:00 12,7 -1,3 15,4 4 2 11 6 W 1007,6 60 33 0,0
22.03.2017 17:00:00 13,5 -2,1 17,2 3 2 17 9 S 1007,9 59 44 0,0
22.03.2017 16:00:00 12,4 -2,7 15,2 6 4 21 11 SSW 1008,9 57 10 0,0
22.03.2017 15:00:00 11,6 0,1 12,2 13 7 22 12 S 1009,8 56 1 0,0
22.03.2017 14:00:00 10,4 1,0 12,5 15 8 22 12 SSW 1010,7 60 0 0,0
22.03.2017 13:00:00 10,7 0,4 13,3 9 5 16 8 SSW 1010,8 56 35 0,0
22.03.2017 12:00:00 9,6 0,5 12,6 10 5 21 11 ESE 1011,7 58 60 0,0
22.03.2017 11:00:00 6,8 1,9 10,0 14 7 20 11 ESE 1012,7 55 60 0,0
22.03.2017 10:00:00 4,5 2,4 3,6 11 6 16 9 ESE 1013,6 48 60 0,0
22.03.2017 09:00:00 2,7 2,0 2,4 10 5 15 8 ESE 1014,3 49 0 0,0
22.03.2017 08:00:00 2,6 1,7 2,5 6 3 10 5 E 1014,8 54 0 0,0
22.03.2017 07:00:00 3,0 2,4 2,8 5 3 8 4 ESE 1015,1 48 0 0,0
22.03.2017 06:00:00 2,9 2,0 2,8 6 4 12 6 NNW 1015,5 60 0 0,0
22.03.2017 05:00:00 3,2 3,2 3,4 6 3 13 7 NNW 1016,0 39 0 0,0
22.03.2017 04:00:00 3,6 3,5 3,6 9 5 19 10 NW 1016,4 45 0 0,0
22.03.2017 03:00:00 3,5 3,4 3,5 12 7 18 10 NW 1016,9 56 0 0,0
22.03.2017 02:00:00 3,9 3,9 3,7 12 7 19 10 WNW 1017,1 44 0 0,0
22.03.2017 01:00:00 4,3 4,2 4,1 13 7 22 12 W 1017,2 47 0 0,0
22.03.2017 00:00:00 4,6 4,2 4,4 7 4 20 11 WNW 1016,7 60 0 0,0
21.03.2017 23:00:00 4,7 4,7 4,5 18 10 27 14 WNW 1017,5 46 0 0,0
21.03.2017 22:00:00 5,6 5,6 5,5 10 6 27 15 NW 1016,6 48 0 0,0
21.03.2017 21:00:00 5,9 5,9 5,7 22 12 35 19 NW 1016,6 10 0 1,2
21.03.2017 20:00:00 7,6 7,2 7,3 10 6 19 10 WSW 1015,3 6 8 0,0
21.03.2017 19:00:00 8,5 6,3 8,4 14 7 21 11 WSW 1014,7 18 0 0,0
21.03.2017 18:00:00 9,1 5,5 9,6 9 5 18 10 W 1014,3 60 0 0,0
21.03.2017 17:00:00 8,8 5,5 9,8 13 7 20 11 W 1014,5 60 0 0,0
21.03.2017 16:00:00 8,7 5,4 9,7 11 6 19 10 WNW 1014,9 10 0 0,0
21.03.2017 15:00:00 8,4 5,3 9,4 14 8 19 10 W 1015,2 60 0 0,0
21.03.2017 14:00:00 8,4 5,7 8,7 11 6 17 9 WNW 1015,6 60 0 0,0
21.03.2017 13:00:00 8,1 5,6 8,5 10 5 19 10 NW 1015,8 55 0 0,0
21.03.2017 12:00:00 7,1 6,5 7,2 13 7 17 9 W 1016,2 7 0 0,0
21.03.2017 11:00:00 6,9 6,2 7,4 8 4 14 8 NNW 1016,0 48 0 0,0
21.03.2017 10:00:00 6,6 6,3 6,5 9 5 14 8 WNW 1016,1 16 0 0,0
21.03.2017 09:00:00 6,2 6,2 6,0 10 6 15 8 WNW 1016,4 7 0 0,0
21.03.2017 08:00:00 6,0 6,0 6,0 10 5 18 10 WNW 1016,3 19 0 0,0
21.03.2017 07:00:00 6,2 6,2 6,1 13 7 24 13 WNW 1016,3 4,7 0 0,4
21.03.2017 06:00:00 7,0 6,9 6,8 12 7 18 10 W 1016,2 3,0 0 0,2
21.03.2017 05:00:00 7,1 6,5 6,8 5 3 11 6 W 1016,5 14 0 0,0
21.03.2017 04:00:00 7,1 6,5 6,6 6 3 10 5 W 1017,0 38 0 0,0
21.03.2017 03:00:00 6,9 6,2 6,6 7 4 9 5 WNW 1017,4 56 0 0,0
21.03.2017 02:00:00 7,0 6,3 6,7 5 3 19 11 NW 1017,6 60 0 0,0
21.03.2017 01:00:00 7,0 6,7 - 15 8 21 11 WNW 1018,2 7 - 0,0
21.03.2017 00:00:00 8,0 6,0 7,9 14 7 24 13 W 1017,8 53 0 0,0
20.03.2017 23:00:00 8,2 5,8 8,3 12 6 22 12 WNW 1017,6 60 0 0,0
20.03.2017 22:00:00 8,5 6,1 8,5 16 9 27 15 NW 1017,3 60 0 0,0
20.03.2017 21:00:00 9,1 6,5 8,7 19 11 29 16 NW 1016,6 60 0 0,0
20.03.2017 20:00:00 9,4 6,7 8,6 13 7 23 12 NNW 1016,1 60 40 0,0
20.03.2017 19:00:00 11,7 7,0 13,4 16 9 24 13 NNW 1015,1 36 60 0,0
20.03.2017 18:00:00 12,6 7,3 14,6 16 9 24 13 NNW 1014,7 60 54 0,0
20.03.2017 17:00:00 13,3 7,9 19,0 14 8 21 11 NW 1014,5 40 60 0,0
20.03.2017 16:00:00 12,4 7,3 19,0 13 7 23 12 NW 1015,1 38 60 0,0
20.03.2017 15:00:00 12,2 7,1 17,4 12 7 19 11 NW 1015,5 35 49 0,0
20.03.2017 14:00:00 11,2 6,5 16,7 7 4 16 9 N 1015,9 19 32 0,0
20.03.2017 13:00:00 11,5 6,8 14,2 5 3 14 8 WNW 1016,4 60 26 0,0
20.03.2017 12:00:00 9,1 5,3 10,0 4 2 14 8 NW 1017,2 55 0 0,0
20.03.2017 11:00:00 8,3 5,9 9,2 6 3 16 9 WNW 1017,6 55 0 0,0
20.03.2017 10:00:00 8,0 6,1 8,3 9 5 14 8 WNW 1017,5 59 0 0,0
20.03.2017 09:00:00 - - - - - - - - - - - -

tt = Température de l'air
td = dewpoint
tt 5cm = Température de l'air 5cm
ff = Vitesse du vent
fx = gusts
dd = Direction du vent
ppp = reduced air pressure
vv = visibility
sd = Ensoleillement
rr = Quantités de précipitations

stations d'obs. à proximité